Weather History for Worland, WY

Change the Weather History Date:

Sunday, May 12, 2013

  Actual Average Record
Temperature  
Mean Temperature 65 °F 54 °F  
Max Temperature 84 °F 69 °F 92 °F (1960)
Min Temperature 46 °F 40 °F 27 °F (1983)
Degree Days  
Heating Degree Days 0 11  
Month to date heating degree days 137 154  
Since 1 July heating degree days 7316 7621  
Cooling Degree Days 0 0  
Month to date cooling degree days 0 0  
Year to date cooling degree days 0 1  
Growing Degree Days 15 (Base 50)    
Moisture  
Dew Point 35 °F    
Average Humidity 40    
Maximum Humidity 65    
Minimum Humidity 15    
Precipitation  
Precipitation 0.00 in 0.05 in 0.43 in (1961)
Month to date precipitation 0.43 0.52  
Year to date precipitation 2.00 2.26  
Sea Level Pressure  
Sea Level Pressure 30.01 in    
Wind  
Wind Speed 5 mph (SE)    
Max Wind Speed 13 mph    
Max Gust Speed 14 mph    
Visibility 10 miles    
Events      
T = Trace of Precipitation, MM = Missing Value Source: NWS Daily Summary

Daily Weather History Graph

Daily Weather History Graph

Search for Another Location

Airport:

Trip Planner

Search our weather history database for the weather conditions in past years. The results will help you decide how hot, cold, wet, or windy it might be!

Date:

Astronomy

May. 12, 2013 Rise Set
Actual Time 5:48 AM MDT 8:28 PM MDT
Civil Twilight 5:15 AM MDT 9:01 PM MDT
Nautical Twilight 4:34 AM MDT 9:43 PM MDT
Astronomical Twilight 3:46 AM MDT 10:30 PM MDT
Moon 7:45 AM MDT (5/12) 10:58 PM MDT (5/12)
Length of Visible Light 15h 45m
Length of Day
14h 39m
Waxing Crescent, 7% of the Moon is Illuminated
May 12
Waxing Crescent
May 17
First Quarter
May 24
Full
May 31
Last Quarter
Jun 8
New

Hourly Weather History & Observations

Time (MDT) Temp. Dew Point Humidity Pressure Visibility Wind Dir Wind Speed Gust Speed Precip Events Conditions
12:53 AM 52.0 °F 36.0 °F 54% 30.09 in 10.0 mi Calm Calm - N/A   Mostly Cloudy
1:53 AM 52.0 °F 35.1 °F 53% 30.10 in 10.0 mi SE 6.9 mph - N/A   Partly Cloudy
2:53 AM 53.1 °F 33.1 °F 47% 30.09 in 10.0 mi ESE 12.7 mph - N/A   Scattered Clouds
3:53 AM 48.0 °F 35.1 °F 61% 30.09 in 10.0 mi South 4.6 mph - N/A   Partly Cloudy
4:53 AM 48.0 °F 36.0 °F 63% 30.08 in 10.0 mi South 10.4 mph - N/A   Clear
5:53 AM 46.9 °F 35.1 °F 63% 30.09 in 10.0 mi South 5.8 mph - N/A   Clear
6:53 AM 50.0 °F 37.9 °F 63% 30.09 in 10.0 mi Calm Calm - N/A   Clear
7:53 AM 57.0 °F 37.9 °F 49% 30.09 in 10.0 mi Calm Calm - N/A   Clear
8:53 AM 62.1 °F 37.9 °F 41% 30.10 in 10.0 mi Calm Calm - N/A   Clear
9:53 AM 68.0 °F 34.0 °F 28% 30.08 in 10.0 mi Calm Calm - N/A   Clear
10:53 AM 73.0 °F 34.0 °F 24% 30.04 in 10.0 mi Calm Calm - N/A   Clear
11:53 AM 75.9 °F 34.0 °F 22% 30.03 in 10.0 mi Variable 3.5 mph - N/A   Clear
12:53 PM 79.0 °F 32.0 °F 18% 30.00 in 10.0 mi NE 5.8 mph - N/A   Clear
1:53 PM 80.1 °F 33.1 °F 18% 29.99 in 10.0 mi ENE 6.9 mph - N/A   Clear
2:53 PM 81.0 °F 32.0 °F 17% 29.97 in 10.0 mi ENE 6.9 mph - N/A   Clear
3:53 PM 84.0 °F 32.0 °F 15% 29.95 in 10.0 mi North 4.6 mph - N/A   Clear
4:53 PM 82.0 °F 30.0 °F 15% 29.94 in 10.0 mi ENE 3.5 mph - N/A   Clear
5:53 PM 82.9 °F 30.0 °F 15% 29.93 in 10.0 mi Calm Calm - N/A   Clear
6:53 PM 81.0 °F 32.0 °F 17% 29.91 in 10.0 mi Calm Calm - N/A   Clear
7:53 PM 72.0 °F 43.0 °F 35% 29.91 in 10.0 mi SSE 5.8 mph - N/A   Clear
8:53 PM 66.9 °F 39.0 °F 36% 29.91 in 10.0 mi South 9.2 mph - N/A   Clear
9:53 PM 66.9 °F 37.9 °F 34% 29.91 in 10.0 mi South 8.1 mph - N/A   Clear
10:53 PM 63.0 °F 39.9 °F 43% 29.92 in 10.0 mi South 8.1 mph - N/A   Clear
11:53 PM 61.0 °F 41.0 °F 48% 29.92 in 10.0 mi South 9.2 mph - N/A   Clear